[[{"header":{"parameterUnit":"m.s-1","parameterCategory":1,"la1":30.2991,"la2":30.254,"lo1":-89.0895,"lo2":-89.0444,"dy":0.0017,"dx":0.0017,"nx":28,"ny":28,"refTime":"2023-08-26T09:00:00:Z","depth":0,"parameterNumber":2,"parameterNumberName":"U-component_of_WINDS"},"data":[0,0,0,0,0,0,0,0,0,0,0,0,0,0,0,0,0,0,0,0,0,0,0,0,0,0,0,0,0,0,0,0,0,0,0,0,0,0,0,0,0,0,0,0,0,0,0,0,0,0,0,0,0,0,0,0,0,0,2.0961,2.0962,0,2.1078,2.108,2.1081,2.1077,2.1075,2.1073,2.1072,2.1194,2.1199,2.1203,0,0,0,0,0,0,0,0,0,0,0,0,0,2.0733,2.0737,2.096,2.0962,2.0963,2.1078,2.108,2.1081,2.1077,2.1075,2.1073,2.1071,2.1192,2.1198,2.1204,0,0,0,0,0,0,0,0,0,0,0,0,0,2.0839,2.0739,2.096,2.0975,2.0978,2.1078,2.108,2.1082,2.1077,2.1075,2.1072,2.107,2.119,2.1197,2.1204,2.1298,0,0,2.1226,2.1229,0,0,0,0,0,0,0,0,2.0833,2.0848,2.0971,2.0974,2.0977,2.106,2.1044,2.1154,2.1078,2.104,2.1072,2.1069,2.1151,2.1162,2.1189,2.1304,2.1309,2.1227,2.1231,2.1234,2.1236,0,0,0,0,0,0,0,2.0826,2.0843,2.1007,2.0973,2.0977,2.0976,2.0989,2.1065,2.1108,2.1043,2.1043,2.1057,2.1153,2.1182,2.1192,2.1311,2.1227,2.1233,2.1238,2.124,2.1508,2.1511,0,0,0,0,0,0,2.0815,2.0837,2.1003,2.1011,2.0898,2.0982,2.0996,2.1036,2.1107,2.1115,2.1058,2.1056,2.1171,2.1184,2.1196,2.1311,2.1234,2.1241,2.1245,2.1506,2.1509,2.1512,0,0,0,0,0,0,2.081,2.083,2.0999,2.0924,2.0945,2.0989,2.1034,2.104,2.1069,2.1119,2.1127,2.1081,2.117,2.1186,2.1273,2.1315,2.1244,2.1251,2.1502,2.1507,2.1511,2.1541,0,0,0,0,0,0,2.0804,2.0828,2.0864,2.0924,2.0949,2.1073,2.1036,2.1044,2.1082,2.1079,2.1142,2.115,2.1169,2.1262,2.128,2.1324,2.1256,2.1499,2.1504,2.1509,2.1536,2.1545,2.1553,0,0,0,0,0,2.0796,2.0868,2.0866,2.0886,2.0995,2.1075,2.1089,2.1109,2.1085,2.1122,2.1153,2.1148,2.1307,2.1271,2.1291,2.1338,2.1496,2.1503,2.1509,2.1532,2.1544,2.1553,0,0,0,0,0,0,2.0813,2.0877,2.0875,2.0969,2.1017,2.1074,2.1121,2.1121,2.1177,2.1172,2.1195,2.1209,2.1296,2.1325,2.1284,2.1432,2.1399,2.1409,2.141,2.1421,2.1429,2.1421,2.1262,0,0,0,0,0,2.0827,2.0887,2.094,2.1018,2.1042,2.1077,2.1113,2.1124,2.1175,2.1195,2.1233,2.1283,2.1344,2.1384,2.1443,2.154,2.1554,2.1582,2.1591,2.1598,2.1607,2.1661,2.1674,2.1533,2.1533,2.1533,0,0,2.0858,2.09,2.0937,2.1022,2.106,2.1122,2.1094,2.1161,2.1207,2.1205,2.1289,2.1319,2.1376,2.1468,2.1511,2.1496,2.1649,2.1606,2.1611,2.1616,2.1669,2.1682,2.1694,2.1537,2.1536,2.1536,0,0,2.0946,2.0984,2.1053,2.1092,2.115,2.1173,2.119,2.1248,2.1267,2.1352,2.1352,2.1407,2.1512,2.1553,2.1587,2.169,2.1688,2.1709,2.1754,2.1806,2.1818,2.1828,2.1865,2.1878,2.1717,2.1718,2.1718,0,2.0978,2.107,2.1089,2.1156,2.1194,2.1194,2.1265,2.1301,2.1376,2.1402,2.1384,2.1515,2.1554,2.1656,2.1681,2.1708,2.1729,2.1702,2.1814,2.1825,2.1834,2.187,2.1884,2.172,2.172,2.1719,2.1719,0,2.1106,2.117,2.1219,2.1291,2.1334,2.1402,2.1432,2.1473,2.148,2.1505,2.1592,2.1637,2.1706,2.1731,2.1739,2.1834,2.1823,2.1809,2.1776,2.1849,2.1884,2.1898,2.1723,2.1722,2.1721,2.1721,0,0,2.1209,2.129,2.1307,2.134,2.1404,2.1454,2.1522,2.1588,2.1624,2.1675,2.1734,2.1822,2.181,2.1849,2.1861,2.1907,2.1986,2.1888,2.1889,2.1905,2.2095,2.2105,2.2121,2.1985,2.1987,2.1989,2.209,0,2.1305,2.1426,2.1444,2.1551,2.1611,2.1612,2.1671,2.1717,2.1742,2.1797,2.1825,2.1888,2.1866,2.189,2.1935,2.1967,2.2025,2.196,2.204,2.2043,2.2026,2.2139,2.215,2.2243,2.2104,2.2106,2.2108,0,2.1432,2.1486,2.1599,2.1654,2.168,2.1733,2.1796,2.1847,2.19,2.1915,2.1958,2.1965,2.2036,2.2,2.2099,2.2054,2.2088,2.2109,2.2113,2.2122,2.208,2.2152,2.2274,2.2288,2.2129,2.2127,2.2126,0,2.1497,2.1598,2.1678,2.1706,2.1772,2.181,2.1839,2.1889,2.1927,2.1982,2.2007,2.207,2.2104,2.2153,2.2176,2.2147,2.2274,2.2239,2.229,2.2289,2.2317,2.2315,2.2447,2.2338,2.2337,2.2337,2.2337,0,2.1602,2.1671,2.1708,2.1758,2.1835,2.1855,2.1932,2.196,2.2004,2.206,2.2064,2.2116,2.2144,2.2201,2.222,2.2299,2.2315,2.2329,2.2334,2.233,2.2328,2.2353,2.2347,2.2341,2.234,2.2339,2.2339,0,2.1688,2.1716,2.1803,2.1859,2.1874,2.1929,2.1977,2.2025,2.2049,2.212,2.2137,2.2176,2.2243,2.2271,2.2353,2.2366,2.2457,2.2456,2.244,2.2441,2.249,2.2485,2.2643,2.2666,2.254,2.2542,2.2542,0,2.1754,2.1807,2.1868,2.1905,2.1935,2.1995,2.2034,2.2056,2.2097,2.216,2.2201,2.2267,2.2322,2.2428,2.2465,2.2527,2.2529,2.258,2.2538,2.2532,2.2531,2.2527,2.2533,2.2588,2.2589,2.259,2.2591,0,2.1868,2.1879,2.1935,2.1996,2.2042,2.2091,2.2139,2.217,2.2199,2.2245,2.2313,2.2355,2.2438,2.2504,2.2569,2.26,2.2601,2.2603,2.2618,2.2615,2.2603,2.2611,2.2461,2.26,2.2599,2.2598,2.2598,2.2597,2.1947,2.1994,2.2044,2.2106,2.2144,2.2189,2.2237,2.2267,2.2324,2.2393,2.2402,2.2475,2.2526,2.2613,2.2646,2.2704,2.2691,2.2713,2.2719,2.2724,2.2728,2.2593,2.2716,2.2716,2.2715,2.2715,2.2715,0,2.2062,2.2094,2.215,2.2217,2.2266,2.2261,2.2314,2.2355,2.2419,2.2466,2.2519,2.2597,2.2661,2.2702,2.2766,2.2805,2.2807,2.2821,2.2819,2.2827,2.2735,2.2716,2.2819,2.2819,2.2819,2.2819,2.2819,2.2818,2.2127,2.2207,2.2223,2.2322,2.2354,2.2424,2.2455,2.2496,2.2534,2.262,2.2673,2.2699,2.2743,2.2811,2.287,2.2881,2.2905,2.292,2.293,2.2844,2.2833,2.2823,2.2805,2.2925,2.2925,2.3017,2.3018,2.3018]},{"header":{"parameterUnit":"m.s-1","parameterCategory":1,"la1":30.2991,"la2":30.254,"lo1":-89.0895,"lo2":-89.0444,"dy":0.0017,"dx":0.0017,"nx":28,"ny":28,"refTime":"2023-08-26T09:00:00:Z","depth":0,"parameterNumber":3,"parameterNumberName":"V-component_of_WINDS"},"data":[0,0,0,0,0,0,0,0,0,0,0,0,0,0,0,0,0,0,0,0,0,0,0,0,0,0,0,0,0,0,0,0,0,0,0,0,0,0,0,0,0,0,0,0,0,0,0,0,0,0,0,0,0,0,0,0,0,0,-1.0916,-1.0916,0,-1.0882,-1.0881,-1.0881,-1.0846,-1.0846,-1.0845,-1.0845,-1.0808,-1.0808,-1.0807,0,0,0,0,0,0,0,0,0,0,0,0,0,-1.0951,-1.0951,-1.0916,-1.0916,-1.0915,-1.0882,-1.0881,-1.0881,-1.0846,-1.0846,-1.0845,-1.0845,-1.0808,-1.0808,-1.0807,0,0,0,0,0,0,0,0,0,0,0,0,0,-1.0928,-1.0951,-1.0916,-1.0894,-1.0892,-1.0882,-1.0881,-1.0881,-1.0846,-1.0846,-1.0845,-1.0844,-1.0809,-1.0808,-1.0807,-1.0816,0,0,-1.0804,-1.0804,0,0,0,0,0,0,0,0,-1.093,-1.0927,-1.0898,-1.0896,-1.0893,-1.0868,-1.088,-1.0859,-1.0846,-1.0864,-1.0845,-1.0844,-1.0828,-1.0826,-1.0821,-1.0814,-1.0813,-1.0804,-1.0804,-1.0804,-1.0803,0,0,0,0,0,0,0,-1.0931,-1.0928,-1.0903,-1.0897,-1.0894,-1.0886,-1.0882,-1.0876,-1.085,-1.0862,-1.0859,-1.0856,-1.0827,-1.0822,-1.082,-1.0812,-1.0804,-1.0804,-1.0803,-1.0803,-1.0811,-1.0812,0,0,0,0,0,0,-1.0936,-1.093,-1.0904,-1.0902,-1.091,-1.0886,-1.0881,-1.0876,-1.085,-1.0846,-1.0856,-1.0854,-1.0824,-1.0821,-1.0818,-1.0827,-1.0804,-1.0803,-1.0802,-1.0811,-1.0812,-1.0812,0,0,0,0,0,0,-1.0937,-1.0934,-1.0905,-1.0915,-1.0911,-1.0886,-1.0881,-1.0876,-1.0871,-1.0846,-1.0841,-1.0856,-1.0823,-1.082,-1.0817,-1.0825,-1.0802,-1.0802,-1.081,-1.0811,-1.0812,-1.0845,0,0,0,0,0,0,-1.0938,-1.0935,-1.0938,-1.0915,-1.091,-1.0905,-1.0881,-1.0876,-1.087,-1.0867,-1.0844,-1.084,-1.0822,-1.0818,-1.0816,-1.0824,-1.0801,-1.0809,-1.081,-1.0812,-1.0843,-1.0847,-1.0851,0,0,0,0,0,-1.094,-1.0949,-1.0939,-1.0936,-1.0914,-1.0905,-1.0902,-1.0882,-1.0871,-1.0874,-1.0858,-1.0841,-1.0825,-1.0818,-1.0816,-1.0823,-1.0808,-1.081,-1.0811,-1.0841,-1.0846,-1.0851,0,0,0,0,0,0,-1.0972,-1.0945,-1.0934,-1.0935,-1.0923,-1.0899,-1.0902,-1.0888,-1.0877,-1.0875,-1.085,-1.0845,-1.0845,-1.0834,-1.0827,-1.0831,-1.0814,-1.0815,-1.0838,-1.0842,-1.0846,-1.0849,-1.08,0,0,0,0,0,-1.098,-1.0976,-1.0952,-1.0956,-1.095,-1.0927,-1.0923,-1.0908,-1.0894,-1.0888,-1.0872,-1.0859,-1.0851,-1.0846,-1.0837,-1.0842,-1.0836,-1.0846,-1.0849,-1.0853,-1.0854,-1.0855,-1.0859,-1.0818,-1.0818,-1.0818,0,0,-1.0995,-1.098,-1.0978,-1.0962,-1.095,-1.0946,-1.0923,-1.0919,-1.0916,-1.0888,-1.0884,-1.0872,-1.0856,-1.0857,-1.0856,-1.0847,-1.0864,-1.0855,-1.0857,-1.0856,-1.0857,-1.0861,-1.0864,-1.0819,-1.0818,-1.0818,0,0,-1.1021,-1.1009,-1.1011,-1.1,-1.0983,-1.0968,-1.0969,-1.0948,-1.0939,-1.0935,-1.0914,-1.0909,-1.0896,-1.0885,-1.0878,-1.09,-1.0884,-1.0898,-1.0918,-1.0919,-1.0922,-1.0925,-1.0933,-1.0936,-1.0899,-1.09,-1.09,0,-1.1041,-1.1034,-1.1013,-1.1011,-1.1004,-1.098,-1.0981,-1.0972,-1.0953,-1.0949,-1.0939,-1.0923,-1.091,-1.0908,-1.0913,-1.0908,-1.0908,-1.09,-1.0924,-1.0926,-1.0929,-1.0936,-1.0939,-1.0901,-1.0901,-1.0901,-1.0901,0,-1.1061,-1.1056,-1.106,-1.1043,-1.1037,-1.1036,-1.1015,-1.1011,-1.0998,-1.0984,-1.0981,-1.0964,-1.0952,-1.0951,-1.0937,-1.0947,-1.0942,-1.0929,-1.0911,-1.0935,-1.0941,-1.0944,-1.0904,-1.0903,-1.0903,-1.0902,0,0,-1.1105,-1.1077,-1.1079,-1.1071,-1.1051,-1.1047,-1.1046,-1.1034,-1.1031,-1.1019,-1.1018,-1.1008,-1.0995,-1.0987,-1.0972,-1.0974,-1.0992,-1.096,-1.0959,-1.0966,-1.1002,-1.1012,-1.1016,-1.0982,-1.0982,-1.0983,-1.1003,0,-1.1127,-1.1123,-1.1104,-1.1106,-1.1102,-1.1079,-1.1078,-1.1065,-1.1052,-1.1047,-1.1032,-1.1025,-1.101,-1.1005,-1.1005,-1.099,-1.0999,-1.0988,-1.0979,-1.0979,-1.0984,-1.1019,-1.1029,-1.105,-1.1006,-1.1006,-1.1006,0,-1.1151,-1.1142,-1.1143,-1.1124,-1.1121,-1.1121,-1.1109,-1.1104,-1.1089,-1.108,-1.1071,-1.1055,-1.1052,-1.1037,-1.1032,-1.1025,-1.1021,-1.1013,-1.1013,-1.1011,-1.0994,-1.1017,-1.1056,-1.1059,-1.101,-1.101,-1.101,0,-1.1183,-1.117,-1.117,-1.1164,-1.1141,-1.1141,-1.1132,-1.1117,-1.1111,-1.1101,-1.1097,-1.1087,-1.1081,-1.1073,-1.1054,-1.1044,-1.1052,-1.1035,-1.1044,-1.1044,-1.1046,-1.1046,-1.1083,-1.1043,-1.1043,-1.1043,-1.1043,0,-1.1209,-1.1211,-1.1184,-1.1183,-1.1185,-1.1164,-1.1165,-1.1154,-1.1141,-1.1137,-1.1117,-1.1114,-1.1089,-1.1084,-1.1069,-1.1068,-1.1065,-1.1057,-1.1053,-1.1059,-1.106,-1.1055,-1.1053,-1.1044,-1.1044,-1.1044,-1.1044,0,-1.1244,-1.1227,-1.1224,-1.1204,-1.1198,-1.12,-1.1182,-1.1181,-1.1167,-1.1163,-1.1161,-1.114,-1.1132,-1.1113,-1.11,-1.109,-1.1093,-1.1085,-1.1098,-1.1095,-1.1105,-1.1104,-1.114,-1.1144,-1.1103,-1.1103,-1.1103,0,-1.1262,-1.1263,-1.1243,-1.1239,-1.1231,-1.1226,-1.122,-1.1199,-1.1194,-1.1178,-1.1179,-1.117,-1.1162,-1.1151,-1.1134,-1.1124,-1.1116,-1.1129,-1.1114,-1.112,-1.1116,-1.1116,-1.1116,-1.1133,-1.1133,-1.1134,-1.1134,0,-1.1295,-1.1286,-1.1279,-1.127,-1.1264,-1.1255,-1.1245,-1.1243,-1.122,-1.1215,-1.1208,-1.1201,-1.1189,-1.118,-1.1168,-1.1157,-1.1142,-1.1139,-1.114,-1.1146,-1.1153,-1.1149,-1.1106,-1.1138,-1.1138,-1.1137,-1.1137,-1.1137,-1.1322,-1.1322,-1.1308,-1.1301,-1.1291,-1.1282,-1.128,-1.1266,-1.126,-1.1248,-1.1236,-1.123,-1.1216,-1.1198,-1.1189,-1.1184,-1.1176,-1.1178,-1.1178,-1.1179,-1.1182,-1.1154,-1.1181,-1.1181,-1.1181,-1.1181,-1.1181,0,-1.1354,-1.1344,-1.1337,-1.1324,-1.1319,-1.1305,-1.1294,-1.129,-1.1285,-1.1273,-1.1266,-1.1257,-1.1249,-1.1231,-1.1221,-1.1221,-1.1213,-1.1219,-1.1218,-1.1216,-1.119,-1.1189,-1.1225,-1.1225,-1.1225,-1.1225,-1.1225,-1.1225,-1.137,-1.1369,-1.1358,-1.1353,-1.1342,-1.1337,-1.1331,-1.1323,-1.1313,-1.1305,-1.1298,-1.1287,-1.1273,-1.1262,-1.1254,-1.1249,-1.1246,-1.1254,-1.1247,-1.1222,-1.1218,-1.1214,-1.1213,-1.1254,-1.1254,-1.1274,-1.1274,-1.1274]}]]